QPF
0.00 0.00 0.00 0.00 0.00 0.00 0.00 0.00 0.00 0.00 0.00 0.01 0.03 0.01 0.01 0.03 0.02 0.03 0.02 0.03 0.01 0.00
0.00 0.00 0.00 0.00 0.00 0.00 0.00 0.00 0.00 0.00 0.01 0.02 0.01 0.02 0.01 0.01 0.03 0.04 0.01 0.02 0.02 0.00
0.00 0.00 0.00 0.00 0.00 0.00 0.00 0.00 0.00 0.00 0.01 0.02 0.00 0.00 0.03 0.00 0.00 0.03 0.02 0.00 0.00 0.00
0.00 0.00 0.00 0.00 0.00 0.00 0.00 0.00 0.00 0.00 0.07 0.09 0.01 0.00 0.00 0.00 0.00 0.02 0.01 0.00 0.00 0.00
0.00 0.00 0.00 0.00 0.00 0.00 0.00 0.00 0.00 0.00 0.11 0.07 0.03 0.02 0.02 0.00 0.01 0.04 0.01 0.00 0.00 0.00
0.00 0.00 0.00 0.00 0.00 0.00 0.00 0.00 0.00 0.00 0.03 0.07 0.03 0.01 0.00 0.01 0.02 0.00 0.02 0.00 0.00 0.00
0.00 0.00 0.00 0.00 0.00 0.00 0.00 0.00 0.00 0.00 0.00 0.02 0.03 0.02 0.01 0.00 0.04 0.02 0.01 0.01 0.00 0.00
0.00 0.00 0.00 0.00 0.00 0.00 0.00 0.00 0.00 0.00 0.00 0.00 0.00 0.00 0.00 0.00 0.01 0.02 0.03 0.01 0.00 0.00
0.00 0.00 0.00 0.00 0.00 0.00 0.00 0.00 0.00 0.00 0.00 0.00 0.00 0.00 0.00 0.00 0.00 0.00 0.00 0.00 0.00 0.00
0.00 0.00 0.00 0.00 0.00 0.00 0.00 0.00 0.00 0.00 0.00 0.00 0.00 0.00 0.00 0.00 0.00 0.00 0.00 0.00 0.00 0.00
0.00 0.00 0.00 0.00 0.00 0.00 0.00 0.00 0.00 0.00 0.00 0.00 0.00 0.00 0.00 0.00 0.00 0.00 0.00 0.00 0.00 0.00
0.01 0.01 0.01 0.02 0.01 0.00 0.00 0.00 0.00 0.00 0.00 0.00 0.00 0.00 0.00 0.00 0.00 0.00 0.00 0.00 0.00 0.00
0.08 0.05 0.03 0.04 0.07 0.05 0.02 0.00 0.00 0.00 0.00 0.00 0.00 0.00 0.00 0.00 0.00 0.00 0.00 0.00 0.00 0.00
0.03 0.06 0.09 0.07 0.05 0.11 0.12 0.08 0.05 0.02 0.00 0.00 0.00 0.00 0.00 0.00 0.00 0.00 0.00 0.00 0.00 0.00
MSLP
1019.17 1019.35 1019.44 1019.44 1019.19 1019.27 1019.20 1019.43 1019.75 1020.47 1020.82 1021.03 1021.22 1021.42 1021.58 1021.49 1021.65 1021.63 1022.01 1022.19 1022.14 1021.29
1018.71 1019.01 1018.88 1019.18 1019.43 1019.40 1019.33 1019.04 1019.65 1020.07 1020.39 1020.69 1020.94 1021.23 1021.31 1021.22 1021.46 1021.71 1021.99 1021.86 1022.04 1021.87
1017.89 1018.47 1018.83 1019.10 1019.37 1019.36 1019.10 1019.39 1019.23 1019.84 1020.05 1020.46 1020.56 1020.81 1020.99 1020.93 1021.21 1021.57 1021.68 1021.51 1021.57 1021.83
1017.08 1017.61 1018.25 1018.57 1018.82 1019.07 1019.19 1019.22 1019.53 1019.68 1019.93 1020.35 1020.32 1020.36 1020.76 1020.87 1020.81 1021.23 1021.38 1021.45 1021.47 1021.57
1016.67 1017.13 1017.47 1017.95 1018.27 1018.59 1018.78 1018.84 1019.15 1019.34 1019.73 1019.91 1020.02 1020.12 1020.48 1020.60 1020.34 1020.82 1020.96 1021.01 1021.13 1021.17
1016.28 1016.55 1016.91 1017.18 1017.72 1018.07 1018.34 1018.51 1018.56 1018.86 1019.26 1019.52 1019.58 1019.83 1019.97 1020.11 1020.24 1020.30 1020.44 1020.55 1020.62 1020.72
1015.68 1016.09 1016.49 1016.51 1016.95 1017.34 1017.69 1018.02 1018.20 1018.39 1018.72 1018.99 1019.30 1019.35 1019.63 1019.57 1019.78 1019.87 1019.85 1020.05 1020.09 1020.25
1015.02 1015.63 1015.95 1016.49 1016.43 1016.63 1016.97 1017.25 1017.59 1017.82 1018.07 1018.39 1018.60 1018.59 1018.93 1019.04 1019.07 1019.29 1019.37 1019.37 1019.52 1019.71
1014.67 1014.94 1015.43 1015.86 1016.33 1016.08 1016.24 1016.55 1016.87 1017.12 1017.25 1017.47 1017.64 1017.76 1018.26 1018.57 1018.47 1018.57 1018.73 1018.84 1018.87 1019.04
1015.40 1014.91 1015.02 1015.28 1015.44 1015.49 1015.58 1015.81 1016.08 1016.31 1016.52 1016.62 1016.78 1016.98 1017.47 1017.89 1018.13 1017.92 1017.88 1018.10 1018.24 1018.25
1016.02 1015.48 1015.14 1015.14 1015.07 1014.98 1015.01 1015.09 1015.25 1015.39 1015.67 1015.86 1015.93 1016.20 1016.54 1016.97 1017.33 1017.28 1017.23 1017.21 1017.37 1017.61
1017.54 1016.63 1015.41 1015.03 1014.89 1014.70 1014.59 1014.45 1014.49 1014.56 1014.81 1015.03 1015.19 1015.37 1015.80 1016.34 1016.49 1016.38 1016.29 1016.35 1016.37 1016.55
1017.80 1017.34 1016.56 1015.78 1015.16 1014.67 1014.25 1014.00 1013.94 1013.72 1013.91 1014.15 1014.39 1014.73 1015.13 1015.66 1015.62 1015.20 1015.09 1015.23 1015.41 1015.56
1017.61 1017.31 1016.57 1015.94 1015.73 1015.35 1014.29 1013.49 1013.29 1013.14 1013.25 1013.30 1013.43 1013.83 1014.23 1014.64 1014.78 1014.01 1013.78 1013.77 1013.61 1013.87
Thickness
5774 5772 5773 5776 5781 5781 5783 5781 5779 5775 5773 5772 5772 5772 5772 5774 5773 5774 5773 5772 5774 5782
5776 5774 5776 5776 5777 5780 5782 5785 5780 5779 5778 5775 5774 5773 5774 5778 5776 5775 5774 5776 5776 5778
5780 5778 5776 5776 5775 5778 5782 5780 5784 5780 5779 5777 5778 5776 5776 5780 5778 5776 5778 5781 5781 5779
5784 5782 5779 5778 5778 5778 5779 5780 5780 5781 5781 5779 5779 5780 5779 5779 5782 5779 5779 5781 5781 5781
5784 5783 5783 5780 5781 5780 5780 5781 5780 5782 5781 5782 5782 5783 5781 5781 5784 5781 5781 5783 5784 5783
5783 5784 5783 5784 5783 5783 5782 5782 5783 5783 5782 5783 5786 5785 5785 5785 5784 5785 5786 5787 5787 5787
5784 5784 5784 5788 5787 5786 5786 5784 5785 5786 5786 5787 5787 5788 5788 5789 5787 5788 5789 5790 5792 5790
5783 5783 5784 5782 5787 5789 5789 5789 5788 5788 5789 5789 5791 5793 5791 5791 5792 5791 5790 5792 5793 5793
5780 5782 5781 5780 5778 5785 5788 5789 5790 5790 5791 5792 5795 5797 5794 5793 5794 5794 5793 5791 5794 5796
5768 5775 5778 5779 5781 5783 5785 5786 5787 5789 5791 5794 5797 5798 5795 5793 5795 5796 5797 5796 5796 5798
5756 5765 5770 5773 5776 5779 5782 5784 5786 5789 5791 5793 5798 5798 5796 5793 5795 5797 5799 5800 5800 5800
5733 5744 5758 5764 5769 5774 5776 5781 5784 5788 5789 5792 5796 5796 5794 5790 5793 5796 5800 5801 5803 5804
5721 5727 5735 5745 5756 5765 5772 5777 5781 5786 5789 5790 5793 5794 5791 5787 5792 5796 5800 5803 5803 5803
5711 5716 5724 5729 5739 5747 5760 5772 5776 5780 5784 5788 5792 5792 5788 5786 5790 5799 5802 5803 5808 5812